Date,TemperatureHighF,TemperatureAvgF,TemperatureLowF,DewpointHighF,DewpointAvgF,DewpointLowF,HumidityHigh,HumidityAvg,HumidityLow,PressureMaxIn,PressureMinIn,WindSpeedMaxMPH,WindSpeedAvgMPH,GustSpeedMaxMPH,PrecipitationSumIn
2013-3-1,65.6,55.1,47.9,47.6,42.4,36.0,85,64,35,29.98,29.88,18,4,18,0.00
2013-3-2,58.4,51.7,44.1,39.6,35.6,31.7,71,55,38,30.02,29.94,33,8,33,0.00
2013-3-3,52.0,43.8,37.1,35.7,32.7,30.3,79,65,51,30.14,29.99,21,5,24,0.00
2013-3-4,66.2,48.9,30.9,40.3,33.1,28.3,98,60,27,30.22,30.09,20,1,20,0.00
2013-3-5,77.0,57.3,42.9,58.4,46.8,36.8,90,71,39,30.16,29.98,19,3,19,0.00
2013-3-6,65.7,57.9,47.6,61.0,42.4,31.6,93,60,29,30.12,29.90,29,8,29,0.00
2013-3-7,67.8,53.1,39.7,45.3,38.9,33.8,81,61,37,30.21,30.10,16,2,16,0.00
2013-3-8,75.3,57.1,38.2,50.3,42.8,35.5,95,65,28,30.21,30.08,14,1,15,0.00
2013-3-9,74.9,61.1,47.3,54.5,50.3,44.8,93,70,41,30.21,30.11,15,2,15,0.00
2013-3-10,79.1,66.7,56.9,59.3,56.2,53.5,90,71,48,30.16,30.04,20,4,20,0.00
2013-3-11,78.0,68.5,59.1,62.2,58.8,54.8,88,72,54,30.09,29.86,16,3,19,0.00
2013-3-12,72.7,65.5,55.4,67.0,61.1,52.8,94,86,76,30.01,29.83,17,6,18,0.18
2013-3-13,75.3,60.2,48.2,52.8,44.1,37.3,92,61,27,30.15,30.00,16,4,18,0.00
2013-3-14,67.8,58.1,44.6,46.2,39.7,32.1,85,55,27,30.25,30.13,17,3,17,0.00
2013-3-15,74.5,63.6,43.9,50.0,42.1,35.1,95,49,31,30.27,30.11,11,2,13,0.00
2013-3-16,81.5,63.9,43.1,52.5,45.5,39.9,93,56,28,30.16,30.00,12,2,13,0.00
2013-3-17,77.8,62.0,44.6,62.9,52.6,41.8,96,73,46,30.12,29.97,13,2,13,0.00
2013-3-18,79.4,71.2,63.1,66.8,63.4,59.5,90,77,60,30.03,29.87,15,4,15,0.01
2013-3-19,89.0,73.3,63.0,66.2,63.3,61.1,95,74,42,30.00,29.85,8,1,8,0.00
2013-3-20,76.6,68.0,58.4,67.1,61.8,55.4,92,81,66,29.94,29.76,16,2,17,0.14
2013-3-21,72.0,58.9,48.2,56.1,44.5,34.2,94,64,27,29.95,29.84,14,3,15,0.01
2013-3-22,80.0,61.0,43.3,63.4,51.0,40.1,94,73,40,30.00,29.86,12,2,12,0.09
2013-3-23,86.8,73.5,63.7,73.0,67.1,61.5,95,82,58,29.96,29.74,20,4,20,0.01
2013-3-24,81.1,73.2,65.5,73.8,68.9,63.1,94,87,74,29.80,29.59,29,7,32,0.92
2013-3-25,71.5,62.8,50.6,64.3,47.3,36.3,93,61,30,30.01,29.68,20,6,20,0.01
2013-3-26,58.8,51.2,42.9,43.8,33.4,27.1,76,52,31,30.22,30.00,27,6,28,0.00
2013-3-27,63.9,50.7,41.1,40.0,35.2,31.8,81,58,31,30.29,30.17,16,3,16,0.00
2013-3-28,73.0,56.1,37.9,46.5,39.3,34.3,96,60,26,30.27,30.14,11,1,11,0.00
2013-3-29,77.0,60.5,41.8,53.6,43.9,38.7,95,60,28,30.30,30.16,10,1,10,0.00
2013-3-30,81.5,64.3,45.1,57.0,49.6,42.3,95,62,38,30.23,30.07,13,2,13,0.00
2013-3-31,82.5,68.3,54.9,59.7,55.4,50.6,91,66,39,30.14,29.95,20,3,20,0.00